Location: Sauerland
(51.1981°N, 7.8053°E)
Time: 14:39:28
(UTC+01:00)

ISS - Pass Details

Date: 23 February 2026
Orbit: 416 x 427 km, 51.6° (Epoch: 5 March)

Event Time Altitude Azimuth Distance (km) Brightness Sun altitude
Exits shadow 05:49:03 40° 278° (W) 635 -3.4 -16.0°
Maximum altitude 05:50:09 81° 360° (N) 428 -3.8 -15.8°
Drops below altitude 10° 05:53:31 10° 88° (E) 1,494 0.4 -15.3°
Sets 05:55:36 0° 89° (E) 2,356 2.0 -14.9°
